DW6064 Weather Reports


time (UTC)temp
F
wind
direction
speed
knots
gust
knots
rain 1hr
in
rain 24hr
in
rain mn
in
humidity
%
barometer
mb
20260904035036 71 144 2.6 3.5 0.05 0.22 0.22 88 1014.5
20260904034532 72 144 0.9 7.0 0.06 0.22 0.22 88 1014.6
20260904034030 72 138 4.3 7.8 0.06 0.22 0.22 88 1014.7
20260904033551 72 132 5.2 7.8 0.07 0.22 0.22 87 1014.9
20260904033030 72 128 5.2 7.8 0.07 0.21 0.21 86 1014.9
20260904032526 72 196 0.9 5.2 0.07 0.20 0.20 87 1015.1
20260904032051 72 196 0.9 5.2 0.07 0.19 0.19 86 1015.3
20260904031527 72 185 1.7 5.2 0.07 0.19 0.19 86 1015.8
20260904031032 72 185 4.3 5.2 0.07 0.19 0.19 87 1015.9
20260904030529 72 255 0.9 7.0 0.06 0.18 0.18 86 1016.1
20260904030029 73 255 0.0 7.0 0.07 0.18 0.18 85 1016.2
20260904025551 73 264 0.9 7.8 0.06 0.17 0.17 85 1016.3
20260904025029 73 278 3.5 7.8 0.06 0.17 0.17 85 1016.3
20260904024547 74 269 0.9 4.3 0.05 0.16 0.16 86 1016.2
20260904024025 74 247 0.9 4.3 0.05 0.16 0.16 87 1016.2
20260904023542 74 151 0.9 4.3 0.04 0.15 0.15 87 1016.1
20260904023042 74 187 1.7 5.2 0.03 0.14 0.14 87 1016.2
20260904022539 74 187 3.5 5.2 0.02 0.13 0.13 85 1016.1
20260904022038 75 215 1.7 6.1 0.02 0.12 0.12 85 1016.0
20260904021535 75 184 2.6 4.3 0.02 0.12 0.12 84 1015.7
20260904021033 75 181 2.6 7.0 0.02 0.12 0.12 83 1015.7
20260904020532 75 184 1.7 8.7 0.02 0.12 0.12 82 1015.2
20260904020031 75 175 5.2 11.3 0.01 0.11 0.11 81 1014.6
20260904015529 76 152 9.6 11.3 0.01 0.11 0.11 81 1014.7
20260904015031 76 154 5.2 9.6 0.01 0.11 0.11 80 1014.3
20260904014527 76 143 2.6 14.8 0.01 0.11 0.11 77 1014.0
20260904014051 76 222 4.3 17.4 0.01 0.11 0.11 77 1014.3
20260904013528 77 299 8.7 17.4 0.01 0.11 0.11 77 1014.0
20260904013028 78 338 7.0 24.3 0.01 0.11 0.11 77 1013.8
20260904012525 79 274 12.2 30.4 0.01 0.11 0.11 76 1014.8
20260904012044 80 272 13.0 30.4 0.00 0.10 0.10 82 1015.1
20260904011543 81 148 0.0 1.7 0.00 0.10 0.10 85 1014.3
20260904011041 81 148 0.0 0.0 0.00 0.10 0.10 84 1014.1
20260904010538 81 148 0.0 0.9 0.00 0.10 0.10 84 1013.9
20260904010037 81 148 0.0 1.7 0.00 0.10 0.10 84 1013.7
20260904005535 81 148 0.0 4.3 0.00 0.10 0.10 82 1013.8
20260904005033 81 148 1.7 4.3 0.00 0.10 0.10 82 1013.8
20260904004529 81 131 1.7 2.6 0.00 0.10 0.10 81 1013.8
20260904004052 82 131 1.7 2.6 0.00 0.10 0.10 81 1013.7
20260904003529 82 131 0.9 2.6 0.00 0.10 0.10 81 1013.7
20260904003054 82 131 0.0 4.3 0.00 0.10 0.10 81 1013.8
20260904002530 82 131 2.6 4.3 0.00 0.10 0.10 80 1013.7
20260904002033 82 141 2.6 4.3 0.00 0.10 0.10 80 1013.7
20260904001531 82 175 1.7 3.5 0.00 0.10 0.10 80 1013.7
20260904001030 82 175 1.7 3.5 0.00 0.10 0.10 79 1013.9
20260904000552 83 175 1.7 3.5 0.00 0.10 0.10 79 1013.9
20260904000031 83 175 1.7 3.5 0.00 0.10 0.10 79 1014.2
20260903235528 83 175 2.6 3.5 0.00 0.10 0.10 79 1014.2
20260903235027 83 178 1.7 2.6 0.00 0.10 0.10 78 1014.1
20260903234524 83 178 1.7 2.6 0.00 0.10 0.10 78 1014.2
20260903234042 83 178 1.7 3.5 0.00 0.10 0.10 77 1014.3
20260903233540 83 178 2.6 3.5 0.00 0.10 0.10 77 1014.4
20260903233039 84 140 1.7 2.6 0.00 0.10 0.10 76 1014.3
20260903232601 84 140 1.7 2.6 0.00 0.10 0.10 76 1014.0
20260903232039 84 140 1.7 2.6 0.00 0.10 0.10 75 1013.9
20260903231536 84 140 0.0 4.3 0.00 0.10 0.10 75 1013.6
20260903231034 85 119 1.7 4.3 0.00 0.10 0.10 74 1013.3
20260903230531 85 128 2.6 5.2 0.00 0.10 0.10 74 1013.1
20260903230030 85 182 1.7 2.6 0.00 0.10 0.10 73 1013.2
20260903225532 85 182 1.7 2.6 0.00 0.10 0.10 73 1013.3
20260903225052 85 182 0.9 4.3 0.00 0.10 0.10 73 1013.4
20260903224528 86 182 1.7 4.3 0.00 0.10 0.10 72 1013.4
20260903224027 86 182 2.6 4.3 0.00 0.10 0.10 71 1013.4
20260903223524 86 182 2.6 5.2 0.00 0.10 0.10 71 1013.3
20260903223043 86 164 3.5 5.2 0.00 0.10 0.10 71 1013.3
20260903222540 86 167 3.5 6.1 0.00 0.10 0.10 70 1013.4
20260903222040 86 186 2.6 6.1 0.00 0.10 0.10 70 1013.4
20260903221535 87 178 4.3 7.8 0.00 0.10 0.10 69 1013.2
20260903221034 87 168 5.2 7.8 0.00 0.10 0.10 69 1013.2
20260903220531 87 183 3.5 7.0 0.00 0.10 0.10 69 1013.3
20260903220031 87 130 4.3 7.0 0.00 0.10 0.10 68 1013.3
20260903215531 87 132 5.2 7.0 0.00 0.10 0.10 68 1013.1
20260903215031 87 171 4.3 7.0 0.00 0.10 0.10 67 1013.2
20260903214529 88 161 5.2 7.8 0.00 0.10 0.10 67 1013.2
20260903214029 88 188 5.2 10.4 0.00 0.10 0.10 66 1013.2
20260903213552 88 195 7.8 10.4 0.00 0.10 0.10 65 1013.3
20260903213033 88 190 4.3 7.8 0.00 0.10 0.10 66 1013.2
20260903212532 88 150 6.1 7.8 0.00 0.10 0.10 66 1013.3
20260903212056 88 161 6.1 8.7 0.00 0.10 0.10 66 1013.3
20260903211534 88 138 5.2 8.7 0.00 0.10 0.10 65 1013.4
20260903211031 88 155 4.3 8.7 0.00 0.10 0.10 66 1013.2
20260903210530 88 168 5.2 9.6 0.00 0.10 0.10 67 1013.3
20260903210028 87 205 5.2 9.6 0.00 0.10 0.10 66 1013.4
20260903205526 87 168 7.0 9.6 0.00 0.10 0.10 67 1013.3
20260903205025 87 183 7.0 9.6 0.00 0.10 0.10 66 1013.3
20260903204543 87 189 6.1 11.3 0.00 0.10 0.10 66 1013.4
20260903204043 87 178 7.8 11.3 0.00 0.10 0.10 67 1013.5
20260903203541 88 200 8.7 11.3 0.00 0.10 0.10 65 1013.7
20260903203040 88 209 7.8 9.6 0.00 0.10 0.10 67 1013.5
20260903202539 88 174 6.1 13.0 0.00 0.10 0.10 66 1013.5
20260903202103 88 236 3.5 13.0 0.00 0.10 0.10 66 1013.5
20260903201540 87 180 7.8 12.2 0.00 0.10 0.10 66 1013.6
20260903201042 88 194 8.7 11.3 0.00 0.10 0.10 65 1013.9
20260903200541 87 168 9.6 13.0 0.00 0.10 0.10 65 1013.9
20260903200039 88 185 8.7 13.0 0.00 0.10 0.10 66 1013.9
20260903195535 88 160 6.1 9.6 0.00 0.10 0.10 65 1013.9
20260903195036 87 161 6.1 11.3 0.00 0.10 0.10 67 1013.9
20260903194531 87 217 7.8 11.3 0.00 0.10 0.10 64 1014.1
20260903194031 88 178 7.8 11.3 0.00 0.10 0.10 66 1014.1
20260903193553 87 153 6.1 8.7 0.00 0.10 0.10 66 1014.1
20260903193031 87 191 4.3 10.4 0.00 0.10 0.10 66 1014.3
20260903192529 86 219 5.2 10.4 0.00 0.10 0.10 65 1014.3
20260903192028 86 205 4.3 11.3 0.00 0.10 0.10 65 1014.4
20260903191526 86 210 5.2 11.3 0.00 0.10 0.10 68 1014.4
20260903191025 86 183 7.0 10.4 0.00 0.10 0.10 67 1014.7
20260903190543 85 186 4.3 9.6 0.00 0.10 0.10 68 1014.7
20260903190026 85 238 7.8 10.4 0.00 0.10 0.10 67 1014.8
20260903185544 85 209 2.6 7.8 0.00 0.10 0.10 67 1014.9
20260903185044 85 227 2.6 11.3 0.00 0.10 0.10 70 1015.0
20260903184541 85 191 8.7 11.3 0.00 0.10 0.10 69 1015.1
20260903184041 84 188 8.7 11.3 0.00 0.10 0.10 70 1015.1
20260903183537 84 232 7.0 13.9 0.00 0.10 0.10 72 1015.2
20260903183036 83 180 9.6 13.9 0.00 0.10 0.10 71 1015.3
20260903182532 83 190 7.8 12.2 0.00 0.10 0.10 72 1015.3
20260903182032 83 201 7.8 12.2 0.00 0.10 0.10 71 1015.4
20260903181529 83 213 7.8 13.9 0.00 0.10 0.10 71 1015.4
20260903181028 83 181 7.0 13.9 0.00 0.10 0.10 71 1015.4
20260903180526 83 153 6.1 13.0 0.00 0.10 0.10 73 1015.4
20260903180051 83 251 3.5 12.2 0.00 0.10 0.10 74 1015.5
20260903175528 83 203 6.1 13.0 0.00 0.11 0.10 73 1015.6
20260903175052 82 168 7.0 14.8 0.00 0.11 0.10 72 1015.6
20260903174549 82 221 4.3 11.3 0.00 0.11 0.10 70 1015.8
20260903174027 81 236 4.3 12.2 0.00 0.11 0.10 73 1015.8
20260903173530 81 198 6.1 12.2 0.00 0.11 0.10 74 1015.9
20260903173049 81 180 5.2 11.3 0.00 0.11 0.10 75 1016.1
20260903172546 80 192 5.2 11.3 0.00 0.11 0.10 76 1016.0
20260903172044 79 194 7.0 11.3 0.00 0.11 0.10 78 1016.2
20260903171541 79 207 6.1 11.3 0.00 0.11 0.10 77 1016.3
20260903171040 78 173 9.6 13.0 0.00 0.11 0.10 78 1016.4
20260903170538 78 184 9.6 13.0 0.00 0.11 0.10 76 1016.4
20260903170037 78 194 5.2 10.4 0.00 0.11 0.10 79 1016.3
20260903165535 78 174 7.0 11.3 0.00 0.38 0.10 79 1016.5
20260903165034 77 191 7.8 11.3 0.00 0.38 0.10 82 1016.5
20260903164557 76 176 6.1 10.4 0.00 0.38 0.10 83 1016.7
20260903164034 76 186 4.3 10.4 0.00 0.38 0.10 83 1016.7
20260903163529 75 207 7.0 10.4 0.00 0.38 0.10 84 1016.8
20260903163055 75 232 6.1 8.7 0.00 0.38 0.10 84 1017.0
20260903162555 75 187 6.1 8.7 0.00 0.38 0.10 85 1017.0
20260903162034 75 173 5.2 7.8 0.00 0.38 0.10 86 1016.9
20260903161551 75 220 2.6 10.4 0.00 0.38 0.10 86 1017.0
20260903161054 74 192 7.0 10.4 0.00 0.38 0.10 85 1017.0
20260903160553 74 183 7.8 10.4 0.00 0.38 0.10 89 1017.1
20260903160031 73 267 6.1 10.4 0.00 0.38 0.10 89 1017.1
20260903155529 73 184 7.0 9.6 0.00 0.42 0.10 89 1017.4
20260903155028 73 183 5.2 11.3 0.00 0.42 0.10 89 1017.6
20260903154529 73 205 4.3 11.3 0.01 0.42 0.10 90 1017.8
20260903154027 73 224 3.5 12.2 0.01 0.42 0.10 90 1017.9
20260903153525 73 210 3.5 13.9 0.01 0.42 0.10 89 1018.1
20260903153043 73 240 6.1 13.9 0.02 0.42 0.10 90 1018.2
20260903152540 73 252 5.2 10.4 0.03 0.42 0.10 90 1018.1
20260903152039 73 221 2.6 9.6 0.04 0.42 0.10 91 1018.0
20260903151538 72 220 3.5 7.8 0.05 0.42 0.10 91 1017.6
20260903151100 72 198 1.7 7.8 0.06 0.42 0.10 92 1017.5
20260903150603 72 207 4.3 7.8 0.08 0.42 0.10 91 1017.1
20260903150040 72 146 5.2 7.8 0.08 0.42 0.10 91 1016.8
20260903145538 71 146 2.6 9.6 0.08 0.42 0.10 91 1016.6
20260903145037 71 114 3.5 11.3 0.07 0.41 0.09 90 1016.6
20260903144534 72 132 7.8 12.2 0.07 0.41 0.09 90 1016.7
20260903144034 72 120 7.8 12.2 0.07 0.41 0.09 90 1017.2
20260903143531 72 141 6.1 8.7 0.07 0.41 0.09 89 1018.1
20260903143030 72 137 5.2 7.8 0.06 0.40 0.08 89 1018.5
20260903142532 72 178 3.5 4.3 0.05 0.39 0.07 88 1019.1
20260903142031 73 203 0.9 4.3 0.04 0.38 0.06 87 1019.4
20260903141554 73 311 0.9 7.8 0.02 0.36 0.04 86 1019.6
20260903141032 73 311 1.7 13.9 0.01 0.35 0.03 86 1019.2
20260903140529 73 333 4.3 18.2 0.00 0.34 0.02 86 1019.6
20260903140028 73 318 12.2 18.2 0.00 0.34 0.02 87 1019.5
20260903135545 73 292 7.0 15.6 0.00 0.34 0.02 88 1019.3
20260903135042 73 186 5.2 7.8 0.00 0.34 0.02 88 1017.3
20260903134539 74 183 5.2 7.0 0.00 0.34 0.02 88 1017.0
20260903134038 74 207 2.6 7.8 0.00 0.34 0.02 88 1016.8
20260903133534 74 163 5.2 8.7 0.00 0.34 0.02 88 1016.9
20260903133033 74 174 5.2 8.7 0.00 0.34 0.02 88 1017.0
20260903132531 74 163 4.3 9.6 0.00 0.34 0.02 88 1017.0
20260903132055 74 203 3.5 7.8 0.00 0.34 0.02 88 1016.9
20260903131532 74 215 3.5 7.8 0.00 0.34 0.02 88 1017.1
20260903131031 74 225 0.9 7.8 0.00 0.34 0.02 89 1017.2
20260903130529 73 204 1.7 7.8 0.00 0.34 0.02 90 1017.3
20260903130032 73 185 3.5 7.8 0.00 0.34 0.02 89 1017.4
20260903125529 73 240 2.6 7.0 0.00 0.34 0.02 89 1017.4
20260903125028 73 217 1.7 7.8 0.00 0.34 0.02 91 1017.5
20260903124526 72 211 2.6 7.8 0.00 0.34 0.02 92 1017.5
20260903124026 72 219 1.7 7.0 0.00 0.34 0.02 92 1017.6
20260903123543 72 254 3.5 7.8 0.00 0.34 0.02 92 1017.6
20260903123042 72 214 3.5 8.7 0.00 0.34 0.02 92 1017.4
20260903122540 72 199 3.5 8.7 0.00 0.34 0.02 92 1017.2
20260903122039 72 171 1.7 7.0 0.00 0.34 0.02 92 1017.2
20260903121600 72 203 1.7 6.1 0.00 0.34 0.02 93 1017.4
20260903121039 72 186 3.5 6.1 0.00 0.34 0.02 93 1017.2
20260903120535 71 189 4.3 6.1 0.00 0.34 0.02 93 1017.4
20260903120035 71 157 2.6 7.0 0.01 0.34 0.02 93 1017.3
20260903115532 71 184 4.3 7.0 0.01 0.34 0.02 92 1017.3
20260903115032 71 203 1.7 5.2 0.01 0.34 0.02 92 1017.7
20260903114533 71 172 1.7 5.2 0.01 0.34 0.02 92 1017.9
20260903114033 71 185 1.7 4.3 0.01 0.34 0.02 92 1017.8
20260903113528 71 242 0.0 5.2 0.01 0.34 0.02 92 1017.6
20260903113027 71 165 0.9 7.0 0.01 0.34 0.02 92 1017.5
20260903112546 71 242 3.5 7.0 0.01 0.34 0.02 92 1017.7
20260903112044 71 238 3.5 6.1 0.01 0.34 0.02 92 1017.6
20260903111540 71 258 0.9 6.1 0.01 0.34 0.02 92 1017.3
20260903111038 71 190 0.0 4.3 0.01 0.34 0.02 92 1017.3
20260903110535 71 211 2.6 7.0 0.00 0.33 0.01 92 1017.3
20260903110035 71 158 2.6 7.0 0.00 0.33 0.01 91 1017.2
20260903105533 71 124 4.3 6.1 0.00 0.33 0.01 91 1017.3
20260903105032 71 134 2.6 4.3 0.00 0.33 0.01 91 1017.6
20260903104529 71 84 0.9 2.6 0.01 0.33 0.01 92 1018.1
20260903104053 71 315 0.9 2.6 0.01 0.33 0.01 91 1018.4
20260903103530 71 315 0.9 2.6 0.01 0.33 0.01 91 1018.7
20260903103052 71 315 0.0 2.6 0.01 0.33 0.01 91 1018.4
20260903102553 71 315 0.9 1.7 0.01 0.33 0.01 91 1018.5
20260903102050 72 315 0.0 2.6 0.01 0.33 0.01 91 1018.2
20260903101552 71 315 0.9 3.5 0.01 0.33 0.01 91 1018.3
20260903101050 71 346 2.6 3.5 0.01 0.33 0.01 91 1018.1
20260903100553 71 30 0.9 3.5 0.01 0.33 0.01 91 1017.7
20260903100031 72 77 0.0 7.8 0.01 0.33 0.01 90 1017.5
20260903095549 72 74 1.7 7.8 0.01 0.33 0.01 90 1017.4
20260903095031 72 70 0.9 7.8 0.01 0.33 0.01 90 1018.0
20260903094528 72 30 3.5 7.8 0.00 0.32 0.00 90 1018.8
20260903094028 72 5 3.5 7.0 0.00 0.32 0.00 90 1018.8
20260903093545 72 82 2.6 7.8 0.00 0.32 0.00 89 1017.9
20260903093044 72 53 2.6 7.8 0.00 0.32 0.00 89 1018.5
20260903092541 72 9 1.7 8.7 0.00 0.32 0.00 89 1018.5
20260903092041 72 22 1.7 11.3 0.00 0.32 0.00 88 1018.2
20260903091537 72 51 5.2 15.6 0.00 0.32 0.00 87 1017.8
20260903091038 72 33 6.1 20.0 0.00 0.32 0.00 87 1018.1
20260903090533 72 85 11.3 20.0 0.00 0.32 0.00 88 1018.2
20260903090032 72 337 5.2 8.7 0.00 0.32 0.00 88 1017.8
20260903085528 72 29 0.9 4.3 0.00 0.32 0.00 88 1017.3
20260903085026 72 71 0.9 7.0 0.00 0.32 0.00 88 1017.3
20260903084524 72 45 0.9 7.8 0.00 0.32 0.00 88 1017.2
20260903084044 72 16 0.9 9.6 0.00 0.32 0.00 88 1017.3
20260903083525 72 43 2.6 9.6 0.00 0.32 0.00 88 1017.3
20260903083044 72 29 1.7 8.7 0.00 0.32 0.00 88 1017.5
20260903082541 72 5 3.5 7.8 0.00 0.32 0.00 88 1017.5
20260903082104 72 22 1.7 8.7 0.00 0.32 0.00 89 1017.5
20260903081541 72 360 1.7 10.4 0.00 0.32 0.00 89 1017.3
20260903081040 72 53 3.5 10.4 0.00 0.32 0.00 89 1017.2
20260903080538 72 59 3.5 11.3 0.00 0.32 0.00 89 1017.2
20260903080036 72 40 3.5 11.3 0.00 0.32 0.00 90 1017.2
20260903075533 72 55 5.2 10.4 0.00 0.32 0.00 90 1017.2
20260903075033 72 44 2.6 12.2 0.00 0.32 0.00 90 1017.3
20260903074530 72 337 6.1 12.2 0.00 0.32 0.00 90 1017.2
20260903074056 72 355 5.2 13.0 0.00 0.32 0.00 90 1017.1
20260903073557 72 9 6.1 13.0 0.00 0.32 0.00 90 1017.2
20260903073035 72 319 4.3 8.7 0.00 0.32 0.00 90 1017.0
20260903072558 72 157 0.9 3.5 0.00 0.32 0.00 89 1016.5
20260903072036 72 174 0.9 2.6 0.00 0.32 0.00 89 1016.4
20260903071537 72 174 0.0 1.7 0.00 0.32 0.00 90 1016.4
20260903071036 72 174 0.9 2.6 0.00 0.32 0.00 90 1016.3
20260903070534 72 174 0.9 2.6 0.00 0.32 0.00 89 1016.4
20260903070037 73 360 0.0 2.6 0.00 0.32 0.00 90 1016.5
20260903065534 73 360 0.0 2.6 0.00 0.32 0.00 90 1016.5
20260903065058 73 360 1.7 2.6 0.00 0.32 0.00 90 1016.7
20260903064559 73 144 0.0 2.6 0.00 0.32 0.00 89 1016.6
20260903064036 73 144 0.9 2.6 0.00 0.32 0.00 89 1016.4
20260903063533 73 148 2.6 2.6 0.00 0.32 0.00 89 1016.5
20260903063033 73 360 0.0 3.5 0.00 0.32 0.00 89 1016.7
20260903062553 73 360 0.9 4.3 0.00 0.32 0.00 89 1016.8
20260903062032 73 331 2.6 4.3 0.00 0.32 0.00 89 1016.8
20260903061530 73 33 0.9 2.6 0.00 0.32 0.00 89 1016.6
20260903061027 73 33 0.9 2.6 0.00 0.32 0.00 89 1016.6
20260903060526 73 22 0.9 5.2 0.00 0.32 0.00 89 1016.6
20260903060045 73 360 2.6 5.2 0.00 0.32 0.00 89 1016.7
20260903055542 73 5 1.7 5.2 0.00 0.32 0.00 88 1016.6
20260903055042 73 5 1.7 5.2 0.00 0.32 0.00 88 1016.7
20260903054539 73 19 2.6 7.0 0.00 0.32 0.00 88 1016.6
20260903054038 73 11 2.6 7.8 0.00 0.32 0.00 88 1016.6
20260903053540 73 17 3.5 7.8 0.00 0.32 0.00 88 1016.7
20260903053038 73 355 1.7 7.8 0.00 0.32 0.00 87 1016.6
20260903052536 73 346 1.7 4.3 0.00 0.32 0.00 87 1016.7
20260903052036 73 355 1.7 4.3 0.00 0.32 0.00 87 1016.5
20260903051534 73 9 1.7 3.5 0.00 0.32 0.00 86 1016.4
20260903051035 73 59 0.9 3.5 0.00 0.32 0.00 86 1016.5
20260903050532 73 59 0.9 3.5 0.00 0.32 0.00 86 1016.5
20260903050057 73 69 1.7 3.5 0.00 0.32 0.00 86 1016.5
20260903045533 73 32 0.9 3.5 0.00 0.32 0.00 86 1016.6
20260903045032 73 5 2.6 3.5 0.00 0.32 0.00 86 1016.7
20260903044549 73 319 1.7 2.6 0.00 0.32 0.00 86 1016.7
20260903044047 73 281 1.7 2.6 0.00 0.32 0.00 86 1016.7
20260903043543 73 189 0.9 2.6 0.00 0.32 0.00 85 1016.6
20260903043043 73 189 0.0 1.7 0.00 0.32 0.00 85 1016.6
20260903042540 73 189 0.9 1.7 0.00 0.32 0.00 85 1016.4
20260903042038 73 189 0.0 3.5 0.00 0.32 0.00 86 1016.6
20260903041536 73 189 0.9 4.3 0.00 0.32 0.00 85 1016.7
20260903041038 73 189 2.6 4.3 0.00 0.32 0.00 85 1016.7
20260903040534 73 198 2.6 4.3 0.00 0.32 0.00 85 1016.7
20260903040034 74 215 0.9 2.6 0.00 0.32 0.00 85 1016.8
20260903035556 74 329 0.0 2.6 0.00 0.32 0.32 85 1017.1